Wind_Speed
16 15 13 12 11 11 13 15 15 15 16 15 15 14 14 14 14 14 13 12 11 11 11 11 11 11 10 9 8 8 7 7 7 6 6 5 5 5 5 4 4 3 2 3 3 3 3 4 5 6 7 7 8 8 9 11 11 11 12 13 14 16 16 17 18 18 20 20 19 18 16 13 16 18 18 21 20 18 16 14 12 10 9 8 8
14 15 14 12 11 11 12 14 14 15 15 14 14 14 15 14 14 13 12 11 10 10 10 11 11 11 11 11 10 9 8 7 7 6 6 6 6 6 5 4 4 3 3 3 3 3 3 3 4 5 6 7 8 8 9 10 10 11 12 13 15 16 15 16 18 19 20 20 20 19 18 16 15 18 20 23 22 20 18 16 14 10 8 7 6
12 14 14 12 11 10 11 13 14 14 14 14 14 14 14 13 13 12 10 9 9 9 10 10 11 11 11 11 11 10 9 8 7 7 7 7 6 6 6 5 4 3 3 2 1 2 2 3 4 5 5 6 8 8 9 9 9 11 12 12 15 16 14 16 18 19 19 19 21 20 20 19 17 17 20 23 23 22 20 17 16 12 8 7 8
13 13 13 13 11 10 11 13 14 13 14 14 13 13 12 11 10 9 9 9 9 9 9 10 10 10 11 11 11 11 10 9 9 8 8 7 7 7 7 6 5 5 4 3 1 0 2 3 4 5 5 6 7 7 8 8 9 11 11 11 14 15 15 17 19 19 19 17 17 18 20 20 19 18 19 23 24 23 21 18 18 14 9 10 11
14 13 13 12 11 11 11 13 14 13 14 13 13 12 11 10 9 9 9 10 10 10 10 10 10 10 10 11 11 11 11 11 10 9 8 8 7 7 7 7 6 6 5 4 2 1 1 3 4 5 5 7 7 6 7 7 8 10 10 11 14 16 16 18 18 18 17 15 14 15 18 19 19 18 19 22 23 21 19 18 18 14 11 11 11
15 14 13 12 12 12 12 13 14 14 14 13 12 11 10 10 10 10 11 11 11 11 11 11 11 11 11 11 11 11 11 11 10 10 9 8 7 7 7 7 7 6 6 4 3 2 1 3 4 5 5 7 7 7 7 6 8 9 10 12 15 16 15 16 15 15 14 14 14 14 16 18 21 21 19 20 20 18 16 18 18 13 11 11 11
15 14 14 13 13 13 13 13 14 14 13 12 12 11 12 12 12 12 13 13 13 12 12 12 12 12 12 12 11 11 11 10 10 9 8 8 7 7 6 6 6 6 5 4 3 2 2 2 4 5 6 6 7 7 7 7 9 9 10 13 15 15 12 11 10 11 12 14 15 14 14 17 22 23 20 18 17 17 16 18 17 13 11 11 12
16 15 15 14 15 15 15 14 14 14 13 13 13 14 15 15 15 14 14 14 13 13 12 12 12 12 12 11 11 11 11 10 10 9 8 7 7 6 6 5 5 6 5 5 5 4 3 2 3 4 5 6 7 8 8 8 9 9 11 13 14 12 10 8 7 10 11 12 14 15 14 14 18 21 21 18 17 17 17 18 16 13 11 12 12
17 17 16 15 16 16 16 15 14 13 13 14 15 17 17 16 15 15 14 14 13 12 12 12 12 11 11 11 11 11 10 10 9 9 8 7 6 5 5 5 5 5 6 6 6 6 5 4 3 3 4 5 7 8 8 8 9 9 10 12 10 9 8 7 9 11 10 10 12 15 15 13 15 18 20 19 17 17 17 17 15 13 12 12 12
17 17 17 17 18 17 16 16 14 13 14 16 17 18 17 16 15 14 13 13 12 12 12 11 11 11 11 10 10 10 10 9 9 8 8 7 6 4 4 4 3 3 4 6 7 7 6 5 4 4 4 4 6 7 7 7 8 9 9 9 7 6 7 7 9 10 10 10 11 13 14 14 14 16 20 21 19 19 19 18 16 14 12 12 12
18 18 18 19 19 19 17 16 15 14 15 16 18 17 16 14 14 13 12 12 12 12 12 11 11 10 10 11 11 10 10 9 9 8 8 7 6 4 3 3 2 2 4 5 6 6 5 5 5 5 5 5 5 5 5 6 8 9 9 7 5 5 7 9 9 9 12 13 12 14 14 14 14 17 21 22 20 20 20 18 16 15 13 13 13
18 19 19 20 20 20 18 16 16 16 16 16 17 16 14 13 12 12 11 11 11 11 12 11 11 10 10 11 11 10 9 9 9 8 8 7 6 5 4 3 2 2 3 4 5 5 4 3 4 5 5 5 5 4 4 6 7 9 9 6 4 5 7 10 9 11 14 14 13 14 15 15 16 18 21 22 22 22 21 20 17 16 14 13 14
18 19 20 21 21 20 19 17 17 17 16 16 15 14 13 12 11 11 11 10 10 10 11 11 11 11 10 10 11 10 9 9 9 9 8 7 7 7 6 5 4 3 3 3 4 5 5 4 3 4 4 5 6 4 4 6 6 8 9 5 5 5 7 8 9 12 14 14 13 14 16 17 17 19 21 21 23 23 23 21 18 17 14 13 14
18 20 21 21 22 21 20 19 18 17 17 16 14 13 12 11 10 10 9 9 9 9 10 10 10 10 10 10 10 10 9 9 9 10 10 9 9 8 6 5 4 4 3 3 5 5 5 6 4 3 3 4 4 4 5 5 5 7 8 6 5 5 7 7 9 12 13 13 13 14 17 17 17 20 21 21 24 25 23 21 19 17 15 13 14
19 20 21 21 22 22 21 19 19 17 17 16 15 13 11 11 10 9 8 8 7 8 8 8 9 10 10 10 10 10 10 10 10 11 11 11 10 9 8 6 5 5 4 4 5 6 6 8 7 4 3 3 3 2 3 4 3 4 5 4 3 3 7 10 11 12 13 13 13 15 16 17 19 21 21 23 26 27 24 22 20 18 16 14 14
20 21 21 22 22 22 21 20 19 18 16 15 15 13 11 10 9 8 7 6 6 6 7 7 8 9 10 10 10 10 10 11 10 10 10 10 10 10 9 8 7 6 5 5 7 8 8 10 10 7 5 4 3 2 1 2 3 3 3 4 2 2 6 12 12 11 13 13 14 16 16 17 20 21 21 24 28 27 25 23 21 19 17 15 14
20 22 22 22 22 22 21 20 19 18 17 15 14 13 12 10 8 7 6 5 5 5 5 6 6 7 9 10 10 10 10 11 10 9 10 10 11 10 9 9 9 9 7 7 9 10 9 11 12 10 7 5 4 3 1 1 2 2 3 4 4 4 5 11 13 11 14 14 14 16 16 16 18 20 21 25 30 28 26 24 22 20 17 15 14
20 22 23 22 22 21 21 20 19 18 17 15 14 13 12 10 8 6 5 4 4 4 4 4 5 6 8 9 10 10 10 11 9 8 9 10 10 9 9 9 9 10 9 8 9 10 10 11 12 12 9 6 4 3 2 1 2 2 3 5 5 6 5 9 13 10 13 16 15 16 17 16 16 18 21 25 30 29 26 25 23 20 17 16 15
19 20 22 23 22 21 21 20 19 18 17 16 15 13 11 10 8 6 5 3 3 2 2 3 4 5 7 8 9 10 10 10 9 8 8 9 9 9 10 10 9 10 9 9 9 9 10 11 12 11 10 6 5 4 3 1 2 3 4 6 6 7 5 6 11 10 10 14 16 16 17 16 16 18 20 25 30 29 27 26 23 21 18 16 15
20 20 21 23 23 22 21 20 19 18 17 16 15 14 12 10 9 7 5 4 3 1 1 2 3 5 6 8 9 10 10 10 10 9 7 7 8 10 11 10 10 10 9 8 9 9 9 10 11 11 9 8 5 4 3 2 2 3 4 6 7 7 6 5 9 10 9 11 14 17 18 17 17 18 21 27 31 29 28 26 23 21 18 16 15
20 20 21 23 23 23 22 21 20 19 18 16 15 14 13 11 9 8 6 5 4 2 1 2 3 5 6 8 9 10 10 10 10 11 9 7 8 10 11 11 11 10 10 9 9 10 9 10 11 10 10 9 7 3 3 2 3 5 5 6 7 8 8 7 8 9 8 9 11 14 17 19 19 19 22 28 30 29 28 25 24 22 19 16 15
21 21 21 23 24 24 23 22 21 20 19 17 16 15 13 11 10 9 8 7 5 4 3 2 4 5 6 7 9 10 11 11 11 11 12 11 11 11 10 10 10 10 10 10 10 10 10 10 10 10 10 10 9 6 2 3 4 5 5 6 8 9 9 9 9 7 8 9 11 12 14 17 18 19 22 27 29 28 27 26 24 22 19 17 16
22 22 21 22 23 24 24 23 23 22 20 19 17 15 14 13 12 10 9 8 7 6 4 3 4 5 6 7 8 10 11 11 11 11 11 13 13 12 10 10 9 9 10 10 11 10 10 9 9 9 9 9 10 10 7 3 4 5 5 6 8 9 10 10 9 8 8 9 10 11 12 13 15 17 20 25 27 27 28 27 25 22 20 17 16
21 22 22 21 22 24 24 24 24 23 22 20 19 17 16 15 13 12 11 10 9 8 6 5 4 5 6 7 8 9 11 11 11 11 10 11 11 12 12 11 9 8 10 10 11 11 9 8 9 8 8 8 9 10 10 7 2 2 4 7 9 10 10 10 10 9 9 10 11 11 12 13 15 16 19 23 26 27 28 27 25 23 21 18 16
18 21 22 22 22 23 22 22 23 23 23 21 20 18 17 16 15 13 12 12 11 9 8 6 6 6 7 8 9 10 11 11 11 11 10 10 10 11 13 14 12 11 11 10 10 11 9 8 8 7 7 7 8 9 8 8 7 3 1 3 6 9 9 9 11 11 10 11 12 13 14 15 16 17 18 22 26 28 29 27 25 23 21 19 17
18 19 21 22 22 22 20 20 22 23 23 22 20 19 18 17 16 14 14 13 12 11 9 8 8 8 9 9 10 11 11 12 12 12 11 10 9 10 11 13 14 14 13 11 11 11 9 9 8 7 7 6 7 7 7 7 6 5 3 2 3 7 8 9 10 11 11 11 12 13 14 15 17 18 19 23 26 28 28 27 25 23 22 20 18
18 19 20 21 22 22 20 20 21 22 23 23 22 20 19 18 17 16 15 15 13 12 11 10 10 10 10 11 11 12 12 13 13 13 12 10 9 9 10 11 12 13 14 13 14 13 11 11 10 8 7 7 6 6 6 6 5 4 3 3 4 6 8 9 9 10 11 11 11 12 14 15 15 17 20 22 25 26 27 26 25 23 22 21 19
19 19 19 20 20 21 21 21 20 21 22 23 22 21 20 20 19 18 17 16 15 13 12 12 12 12 13 13 13 14 14 14 15 14 13 11 10 10 10 11 11 12 12 13 14 15 15 14 13 11 9 8 6 6 5 5 4 3 3 3 4 6 8 9 10 10 10 10 11 12 14 15 15 16 19 21 23 25 26 25 24 23 22 21 19
19 19 19 19 19 20 21 21 21 21 21 21 21 21 20 20 19 18 18 18 16 16 15 14 14 15 15 16 16 16 16 16 16 16 14 12 11 11 11 11 11 12 12 13 13 14 15 15 14 13 12 10 8 6 5 4 3 3 3 3 3 5 7 9 11 11 11 10 10 11 13 16 16 17 19 21 22 24 25 25 25 24 22 21 20
20 19 18 18 19 19 20 21 21 22 21 20 20 21 21 20 19 19 19 19 18 18 17 16 16 17 18 18 17 18 17 17 17 17 16 14 12 12 13 13 12 12 12 13 13 13 14 14 15 14 13 12 10 8 6 5 4 3 3 3 3 5 7 9 11 12 13 12 11 11 13 15 17 18 19 20 22 22 23 25 25 24 23 21 20
20 19 19 19 20 20 20 20 20 21 21 21 21 21 21 20 20 20 20 20 20 20 20 19 19 19 19 19 19 19 18 18 18 17 16 15 13 13 14 14 14 13 13 14 14 13 14 14 14 14 13 13 12 10 7 5 5 4 3 3 3 4 6 8 10 11 13 14 13 12 13 14 17 18 19 19 20 21 22 23 24 23 22 21 20
21 20 20 20 19 19 19 19 19 20 20 19 20 21 21 22 22 21 21 21 22 22 22 21 21 20 20 20 19 19 18 18 18 17 17 16 14 14 15 15 15 15 14 15 15 14 15 15 14 14 14 13 12 11 9 6 5 5 4 3 2 4 5 7 9 10 12 14 15 15 14 15 17 18 19 20 20 21 21 22 22 22 21 21 20
22 21 20 20 19 19 18 18 18 19 19 19 19 19 20 21 21 21 21 22 22 22 22 22 22 21 20 20 19 19 19 19 19 18 18 17 15 15 16 16 16 15 15 15 16 16 16 16 15 14 14 14 13 12 10 8 6 5 5 4 3 4 5 7 8 10 11 13 14 16 16 16 18 20 20 21 21 21 21 21 21 21 21 21 21
23 22 21 20 19 18 17 17 17 18 19 19 19 18 18 19 19 20 21 22 22 21 21 22 22 20 20 20 20 20 20 20 20 19 18 17 17 16 17 18 17 16 16 17 17 18 17 17 16 14 14 14 15 14 11 10 8 6 6 6 5 5 6 7 8 9 11 12 13 15 16 17 19 21 22 22 22 22 22 22 21 21 21 21 20
22 22 22 20 18 17 17 17 17 17 17 17 17 17 18 18 18 18 19 19 19 20 20 20 20 20 19 19 20 21 21 20 20 20 19 19 18 19 19 20 19 17 17 18 18 19 19 18 17 15 14 14 15 15 13 11 10 8 7 6 6 6 6 7 8 9 10 11 12 14 16 17 18 20 22 23 24 23 23 23 22 22 21 20 20
20 21 20 19 18 17 17 17 17 16 16 15 15 16 17 17 16 16 17 17 17 18 18 18 19 19 18 18 19 19 20 20 19 20 20 20 20 21 21 22 21 19 20 20 20 20 20 19 17 15 15 15 14 15 14 13 12 10 9 8 7 7 7 6 7 8 10 11 12 14 16 17 18 19 21 23 24 25 25 24 24 23 22 21 20
20 19 18 18 18 17 18 17 17 17 17 16 15 16 16 16 16 16 17 17 17 17 17 18 19 19 18 17 17 17 19 19 19 21 22 21 21 22 23 23 24 22 22 22 20 20 20 20 18 15 15 14 14 14 14 13 13 12 11 10 8 8 7 6 6 7 9 10 11 13 15 17 18 19 20 22 24 25 25 26 26 25 24 22 21
20 19 18 18 18 18 19 19 19 18 18 17 16 16 16 16 16 16 16 17 17 17 17 18 18 18 18 18 18 18 18 19 20 22 23 23 22 22 23 24 26 25 25 24 21 19 20 19 18 15 14 14 14 14 14 14 13 12 12 11 10 9 8 7 7 7 8 10 11 12 14 16 18 19 20 21 23 24 24 26 27 27 26 25 23
20 20 19 19 18 19 19 20 19 17 18 18 16 16 16 16 16 16 16 16 16 18 18 19 19 19 19 19 19 19 19 21 22 22 23 23 22 21 22 23 25 25 25 24 20 19 19 18 18 16 14 13 14 15 14 14 14 13 13 12 11 10 9 8 8 7 8 9 11 12 13 15 16 18 20 21 22 23 23 24 26 27 27 27 26
21 20 19 19 19 19 19 19 17 15 17 17 15 16 17 16 16 16 15 16 17 18 18 19 19 19 19 19 20 20 21 22 21 20 21 21 20 20 20 21 23 23 22 20 19 18 18 17 17 17 15 13 13 14 14 14 14 14 13 13 13 12 11 10 9 9 9 10 10 11 12 14 15 17 18 20 21 22 23 24 25 26 26 27 27
20 19 18 18 18 18 18 17 16 15 15 15 15 16 17 16 17 16 16 17 18 18 18 18 19 19 19 20 20 20 20 20 19 19 18 17 16 17 17 18 20 20 19 18 17 16 16 17 16 15 14 13 13 14 13 13 14 14 14 14 14 13 13 12 11 10 10 10 10 11 12 13 14 16 17 18 20 21 22 23 25 25 26 26 27
18 17 16 16 17 17 17 16 14 14 13 14 15 16 17 17 18 17 17 18 18 18 18 18 18 19 19 18 18 18 17 17 17 17 15 14 14 14 14 15 16 17 16 15 15 13 14 16 14 13 13 12 12 13 13 12 13 14 14 14 14 14 14 13 12 12 12 12 11 11 12 13 14 15 16 17 19 20 21 22 23 24 25 26 26
16 16 16 16 15 15 15 15 14 14 14 15 16 17 18 19 19 18 17 18 18 17 17 17 17 17 17 17 16 16 15 15 15 14 13 13 12 11 11 11 12 13 13 13 12 11 11 13 13 12 12 11 11 13 12 12 13 14 15 15 14 15 15 14 13 14 13 13 13 12 12 12 13 14 15 16 17 18 20 21 22 23 24 25 26
14 14 14 14 14 14 15 15 15 15 14 15 16 18 18 19 19 18 18 18 17 17 17 15 15 16 16 15 14 13 12 12 13 13 12 12 11 11 10 9 9 10 11 11 11 10 10 11 12 12 10 10 11 12 13 12 13 14 15 16 15 15 16 15 14 15 14 14 14 13 13 13 14 14 15 15 16 17 18 20 22 23 24 24 25
10 10 10 11 11 12 13 14 15 15 14 15 15 16 17 17 17 17 17 17 17 16 15 14 13 14 13 12 11 11 11 12 13 13 13 12 12 12 10 9 9 9 9 9 10 10 10 10 11 11 10 10 11 12 13 13 13 14 15 16 17 16 16 16 16 17 16 15 15 14 13 14 15 15 15 14 14 15 16 18 19 21 22 23 24
8 8 8 7 7 8 10 11 12 13 13 13 14 14 15 16 16 16 16 16 16 14 14 13 12 12 11 11 12 11 12 13 13 13 13 13 13 12 11 10 9 9 9 9 10 10 10 10 11 11 10 11 11 12 13 14 14 14 15 16 17 17 16 17 18 18 18 16 17 16 15 15 15 15 15 14 14 15 15 16 17 19 20 21 22
7 7 7 6 5 5 7 9 10 11 12 12 12 13 13 14 14 15 15 15 14 13 13 13 12 11 11 12 13 12 13 14 13 14 14 14 13 12 12 10 9 9 9 9 10 10 11 11 10 10 11 11 12 12 14 15 15 15 15 15 17 18 18 19 19 19 19 18 18 18 17 16 15 15 14 14 14 14 14 15 16 17 18 19 20
6 5 6 5 5 5 6 9 10 11 12 12 12 12 13 13 14 14 14 13 13 12 12 12 12 13 14 15 15 14 13 13 13 14 15 15 15 14 13 12 11 10 10 10 11 11 11 11 10 11 11 11 12 13 14 15 16 16 16 16 17 18 19 20 20 20 21 20 19 20 19 17 16 16 15 15 15 14 13 14 15 16 17 17 18
6 6 6 5 6 6 7 9 11 11 12 13 13 13 14 14 14 14 14 13 12 12 12 13 13 15 16 17 17 15 14 14 14 14 15 15 16 16 15 14 14 13 12 11 12 12 13 12 11 12 12 12 12 13 13 15 16 17 17 17 18 19 20 20 20 20 22 23 22 21 21 19 18 18 17 16 15 14 13 14 14 15 16 16 16
8 7 7 7 7 7 8 9 10 12 13 14 15 15 16 16 16 16 15 15 14 14 14 15 15 16 17 17 16 16 16 17 16 16 15 15 16 16 16 16 15 15 13 12 13 13 14 14 13 14 13 13 13 13 14 14 14 15 16 18 19 19 19 20 21 21 22 23 23 22 21 20 19 19 18 18 18 17 15 14 14 13 14 15 16
8 8 8 8 8 7 8 9 10 11 12 14 15 16 17 17 17 17 17 17 16 16 16 16 16 16 16 16 16 16 17 17 17 16 16 15 15 15 15 16 16 16 15 14 14 14 14 14 15 16 16 15 15 15 15 15 14 14 15 16 18 19 20 21 21 22 22 22 23 22 22 21 20 21 20 19 21 19 16 15 14 14 14 14 15
Wind_Direction
154 151 149 143 140 134 125 122 121 123 123 123 120 116 113 109 107 104 102 99 95 94 91 89 85 83 86 90 96 101 101 96 91 85 80 79 82 86 91 96 100 104 113 139 163 172 182 182 179 188 189 192 195 194 192 185 186 187 187 186 191 200 187 179 185 188 194 190 183 183 180 163 150 158 160 156 158 157 149 141 134 125 128 132 124
155 149 147 141 139 134 127 123 121 121 120 118 115 112 109 106 105 102 100 98 96 93 88 85 82 80 80 83 85 86 86 85 82 76 71 71 72 76 78 80 85 84 89 116 152 170 187 196 203 205 195 201 205 202 203 195 190 192 198 193 196 201 184 179 188 193 198 195 188 183 179 174 159 157 163 161 161 160 152 145 139 132 132 129 114
158 149 145 141 140 135 129 124 121 119 117 116 112 108 105 104 102 102 102 101 98 90 85 82 79 78 77 76 76 75 76 77 76 71 65 65 66 68 71 73 75 77 81 90 127 172 196 210 219 221 206 212 216 208 203 201 198 200 207 200 202 205 185 182 189 192 195 194 191 184 180 179 170 162 165 166 164 162 158 155 148 143 137 114 94
158 152 145 142 142 137 132 125 121 119 117 115 109 104 101 99 99 102 106 106 101 93 87 82 80 77 75 73 72 72 72 73 71 67 64 62 65 67 71 72 71 70 66 61 48 237 235 231 228 234 228 229 226 209 198 196 203 209 212 206 208 208 190 187 189 191 190 187 186 183 183 181 173 169 171 171 171 169 167 163 150 148 142 115 100
156 153 146 145 144 139 134 125 121 120 118 114 107 102 97 97 99 103 106 105 104 100 95 88 83 78 76 76 75 74 72 73 73 71 68 66 67 68 71 71 68 66 60 52 35 358 282 256 243 244 242 245 242 225 213 201 209 215 213 212 216 215 197 193 193 190 186 178 175 178 184 183 178 176 181 183 180 178 176 164 150 150 146 124 110
157 153 148 147 146 140 132 125 124 122 119 113 105 100 98 99 101 102 101 101 101 100 97 92 87 83 80 79 79 78 77 77 78 78 76 72 70 70 70 71 64 57 51 43 30 4 289 262 256 253 245 247 252 246 236 217 218 215 212 215 221 224 204 194 194 186 182 179 174 177 185 184 184 185 190 197 188 179 177 161 149 155 152 129 114
156 152 148 148 147 139 131 129 127 125 120 113 107 104 104 103 102 102 100 98 97 95 92 89 85 83 80 79 79 78 79 81 82 81 78 74 71 72 74 74 64 52 44 31 21 356 308 271 264 260 253 249 252 252 248 234 228 217 215 220 222 226 209 196 189 175 182 187 180 179 188 179 182 189 192 202 188 175 175 159 150 159 153 127 115
152 150 149 148 146 139 133 133 131 128 123 117 115 114 111 107 105 102 100 99 95 92 88 85 82 79 78 76 76 75 76 76 77 76 73 72 71 74 77 76 64 51 44 32 26 4 335 307 282 270 263 255 253 252 250 244 238 222 218 225 223 218 211 205 171 166 185 187 181 180 191 179 176 188 191 198 186 173 170 157 154 161 149 127 119
150 149 150 149 143 140 137 137 135 131 127 123 123 121 116 111 107 104 101 98 95 92 89 86 83 79 77 74 72 72 72 69 69 69 66 68 71 78 78 73 59 47 44 36 29 10 355 345 317 286 270 256 250 251 252 253 251 237 225 229 226 214 209 201 161 168 184 178 182 183 193 189 177 183 189 198 186 171 167 160 159 158 146 131 122
152 151 151 149 143 142 142 140 138 134 131 129 129 125 120 114 110 107 103 98 93 89 87 84 82 78 74 70 67 66 67 67 65 64 62 61 64 75 83 78 67 47 46 39 28 14 0 351 336 312 292 267 254 253 257 259 259 254 241 233 224 215 204 192 176 177 182 175 184 190 194 195 187 182 188 196 184 171 169 166 164 157 147 134 122
155 153 152 149 146 145 145 144 140 137 135 134 133 129 122 116 111 108 104 98 91 84 80 75 73 69 65 62 60 61 61 62 62 61 59 59 61 74 95 100 93 52 40 37 28 17 3 346 331 319 312 300 280 266 261 259 260 258 252 244 225 210 196 194 191 181 179 176 183 191 194 194 193 185 185 192 183 172 172 170 166 156 149 137 121
157 155 154 150 149 149 147 147 143 140 139 138 137 133 126 118 112 109 103 96 88 82 75 68 65 61 60 58 57 59 58 58 58 56 57 60 65 72 85 95 84 51 31 33 30 23 17 354 324 309 309 308 295 282 268 260 262 262 258 255 239 210 199 198 186 176 178 175 180 189 190 191 194 184 180 188 181 173 174 172 166 155 151 139 123
160 157 156 154 154 152 150 149 147 144 142 142 140 136 131 121 115 110 105 96 88 81 74 67 61 59 60 57 56 56 53 52 50 48 47 52 62 70 77 80 74 54 31 35 35 27 25 15 340 304 297 297 293 288 270 258 259 264 260 246 220 196 192 192 170 172 178 172 178 186 188 190 193 182 177 183 178 174 175 171 165 156 153 141 126
164 161 160 158 157 155 153 152 151 150 147 144 144 141 136 128 122 115 107 98 90 82 74 65 59 58 59 58 55 51 47 43 40 40 38 38 44 53 65 71 68 54 39 36 36 30 22 15 5 340 309 289 290 288 272 264 257 253 248 226 197 182 177 171 162 170 174 170 174 181 186 186 183 176 175 181 178 177 175 169 163 157 154 144 131
168 166 164 162 160 159 157 156 155 155 152 149 148 147 143 136 131 123 112 101 91 82 74 65 58 55 54 54 52 48 43 37 35 37 38 41 38 35 40 42 42 39 38 33 29 24 15 11 9 11 359 316 321 310 270 269 260 252 249 229 193 179 161 146 154 167 166 167 169 173 176 173 171 172 176 181 180 179 174 167 164 158 155 147 137
171 169 169 167 164 163 161 160 160 160 158 154 152 151 150 146 142 133 121 109 98 87 78 68 59 54 51 48 45 41 35 34 35 36 39 43 41 36 31 24 20 21 24 27 24 17 12 11 6 8 12 3 9 15 269 258 256 258 248 238 213 177 146 132 144 157 155 159 160 162 164 167 170 171 177 181 180 178 171 167 165 160 157 151 141
174 173 174 172 168 166 165 164 163 164 163 161 158 154 154 154 152 145 132 119 106 92 82 70 58 52 49 42 38 34 28 32 33 34 36 37 37 34 26 19 15 15 19 20 20 15 11 10 4 1 8 22 32 42 74 216 236 229 205 209 188 168 147 131 143 152 146 150 155 157 158 165 172 170 174 179 178 175 170 169 166 162 160 154 144
178 177 178 175 171 170 169 168 168 168 167 166 165 161 160 161 162 160 149 134 115 98 82 67 52 46 46 39 35 29 24 27 27 28 31 34 36 30 27 29 23 20 23 19 17 17 15 11 4 1 5 21 42 56 79 136 180 177 166 177 174 157 159 146 146 150 145 147 154 158 158 161 169 170 171 175 176 173 170 170 167 164 164 158 147
183 181 181 180 176 175 174 172 173 173 171 172 172 171 169 169 170 170 169 159 137 109 74 52 37 33 35 32 31 26 22 22 18 21 27 34 35 32 32 32 29 22 22 21 15 18 17 13 7 3 4 13 34 56 83 115 152 165 157 162 169 153 162 156 140 147 150 149 153 156 160 161 167 172 171 174 175 171 170 170 167 166 168 162 149
187 185 184 185 181 179 179 178 178 177 177 179 178 179 179 179 178 178 182 181 171 153 43 8 8 13 18 18 21 21 20 16 11 11 20 36 32 32 34 25 24 20 21 23 13 12 15 17 14 9 7 9 20 45 83 114 149 165 167 164 174 160 154 149 135 147 157 154 153 154 158 160 165 171 174 175 173 170 171 170 169 170 172 165 152
189 189 187 189 187 183 184 185 184 183 184 185 185 186 187 187 188 187 192 195 194 195 244 320 337 348 360 5 8 11 15 14 8 4 2 19 25 26 30 19 15 19 23 20 8 11 15 19 21 20 17 12 11 25 92 118 153 173 184 179 181 170 158 152 142 151 161 162 159 155 158 160 164 169 173 175 171 169 171 171 172 173 174 169 158
191 192 191 191 192 189 188 190 190 189 190 191 193 194 193 195 199 199 201 203 206 208 224 275 311 327 342 353 357 360 7 9 5 1 354 1 13 14 18 13 11 20 23 14 5 12 17 20 23 23 22 17 12 8 55 126 158 185 193 191 188 177 167 156 148 159 165 166 167 163 163 163 165 165 168 172 170 170 172 173 175 176 177 173 164
193 194 196 195 196 194 193 195 196 196 195 197 200 201 201 204 207 207 208 209 215 217 223 246 279 306 323 337 345 349 355 0 360 360 354 355 2 1 358 358 8 17 14 8 8 15 18 20 21 19 22 22 18 12 11 60 148 186 198 198 191 176 170 160 153 166 169 168 172 171 169 168 169 167 168 170 171 174 175 176 179 179 181 178 171
197 196 198 198 200 200 198 199 200 201 201 203 206 208 209 211 213 213 214 213 217 222 226 239 262 287 306 321 330 338 342 347 351 352 352 352 356 353 344 345 0 11 7 7 10 13 17 18 16 16 22 23 21 19 12 10 25 184 187 187 181 169 167 164 160 169 173 175 177 178 177 176 177 174 173 174 175 179 179 181 183 182 185 184 179
201 201 201 201 204 205 204 204 204 206 207 209 210 213 215 217 218 218 220 220 220 224 230 241 259 278 293 307 316 325 329 333 339 341 344 347 351 349 341 342 348 355 1 7 5 1 2 6 7 11 16 20 21 21 18 8 358 346 264 186 175 169 169 168 168 171 172 179 181 180 180 180 181 179 177 179 180 182 182 185 188 186 187 190 188
201 204 205 205 206 208 209 209 209 210 212 213 215 218 220 221 223 222 223 225 226 228 234 244 256 272 285 295 304 312 317 321 326 330 335 339 343 343 339 339 339 339 345 351 351 347 347 351 350 357 6 10 13 13 15 12 1 350 329 280 201 185 184 180 178 177 174 181 185 183 183 180 181 182 181 183 183 183 185 189 191 191 191 194 196
200 203 206 208 209 209 212 213 214 215 215 217 220 221 223 225 227 227 226 228 230 232 238 249 260 270 280 287 295 301 307 311 314 317 324 329 329 329 329 331 330 328 333 337 336 335 338 341 335 337 351 357 2 4 9 11 5 356 332 282 232 207 200 197 191 186 180 183 189 189 189 185 184 186 186 187 186 187 190 192 194 196 196 198 202
200 202 205 209 210 211 213 215 218 219 218 220 222 224 226 228 230 230 230 232 234 237 242 253 265 272 278 283 290 295 299 302 304 306 311 317 315 313 314 318 319 318 322 326 328 331 332 333 330 327 332 339 348 355 3 7 4 351 327 291 247 225 211 209 205 199 190 188 194 195 192 190 189 191 192 191 190 192 195 196 198 201 201 202 206
202 203 205 208 211 213 215 216 219 221 222 223 225 227 228 230 233 233 233 235 237 241 247 255 263 270 276 281 287 292 295 296 297 298 300 303 301 300 302 304 307 308 311 315 319 324 325 325 323 320 321 323 330 338 349 351 351 352 325 296 252 237 221 214 212 210 204 196 199 201 196 193 191 190 192 193 193 194 196 197 200 204 206 207 210
204 206 205 208 211 213 216 218 220 221 223 225 228 230 231 232 236 237 237 239 242 246 251 255 259 266 272 279 284 288 291 292 293 293 292 293 291 291 293 296 298 299 302 305 310 315 317 318 316 313 312 313 317 323 332 338 335 345 332 299 259 240 228 218 213 213 213 208 207 208 204 200 196 191 190 191 194 195 196 198 201 205 208 210 213
206 207 208 211 213 214 217 219 221 223 223 225 229 231 234 236 238 240 241 244 247 251 255 258 260 263 267 274 279 282 286 287 288 288 286 285 285 285 286 288 290 293 296 298 302 308 310 312 311 308 305 304 309 312 318 326 322 321 321 299 267 245 236 227 217 215 216 214 214 215 214 209 204 198 193 192 194 196 197 199 203 206 209 213 216
208 209 211 215 218 218 219 220 222 225 225 226 230 232 234 238 242 244 244 246 250 255 259 262 264 266 268 272 276 279 280 281 281 281 280 279 278 279 281 283 284 287 291 293 298 304 305 306 306 303 299 296 298 303 308 309 305 298 295 289 260 247 246 236 225 218 217 216 216 217 218 216 212 207 202 198 197 198 200 201 204 207 210 215 218
211 212 214 218 222 223 224 225 226 228 228 228 230 232 234 238 242 244 244 246 250 255 258 262 265 267 270 273 275 276 275 275 274 274 275 276 276 276 277 278 278 282 288 291 296 301 303 303 303 300 296 291 288 291 297 297 294 288 287 286 259 241 242 241 234 224 219 218 217 217 217 218 217 213 209 206 203 203 203 205 207 210 212 216 220
214 215 216 219 224 227 229 231 232 233 233 233 234 235 238 240 241 242 245 247 250 253 256 260 263 266 268 271 273 274 275 275 275 276 276 276 277 277 277 277 275 278 284 289 293 297 300 302 302 301 295 288 283 283 285 288 287 284 284 283 270 250 239 239 236 229 223 218 217 218 218 218 219 216 214 212 210 209 208 209 210 213 216 219 222
215 215 216 218 223 228 232 234 236 239 239 240 241 242 243 243 243 244 247 250 252 255 258 260 264 266 268 271 273 276 278 279 278 278 278 278 280 279 279 278 277 278 280 283 287 291 295 298 300 302 296 287 281 279 280 282 282 281 280 277 272 260 245 235 229 228 228 223 219 220 220 220 220 219 217 216 215 215 214 214 214 216 218 221 224
211 214 214 215 220 225 229 233 236 239 240 242 246 247 248 247 247 249 250 253 256 260 263 265 266 267 269 273 277 278 279 280 279 279 279 279 280 282 282 281 281 281 278 279 283 287 290 291 293 297 294 288 282 278 277 278 280 280 280 275 269 262 256 242 227 227 230 229 224 223 223 222 221 221 221 220 220 220 220 221 221 221 221 223 227
208 210 213 213 217 222 226 231 234 235 237 238 242 247 250 252 251 252 254 256 259 263 266 268 269 268 270 276 280 282 282 283 283 283 283 283 284 286 287 286 285 283 278 277 280 283 284 285 286 287 288 285 280 277 275 274 277 277 276 274 268 263 264 257 241 233 231 231 228 225 226 225 224 223 223 223 224 224 224 225 227 228 227 227 229
209 209 213 216 217 222 226 230 232 232 235 236 237 243 248 251 252 254 257 259 261 264 266 269 270 270 273 278 281 284 286 286 284 283 285 286 287 288 288 288 288 286 280 275 273 274 275 278 280 279 280 279 275 273 272 271 272 273 272 271 268 264 265 264 252 240 233 231 230 228 227 227 226 226 226 227 227 228 228 229 230 231 232 232 232
213 213 216 219 221 225 227 231 233 231 235 236 233 238 244 250 254 257 257 257 259 263 267 270 271 273 277 280 282 283 284 285 286 285 284 286 286 285 286 287 287 286 283 280 277 271 267 270 275 276 274 271 269 268 268 267 266 267 266 266 267 265 264 262 254 246 238 233 232 231 230 230 229 228 229 230 231 232 232 233 233 233 234 235 235
213 215 217 220 223 225 226 231 236 236 239 240 235 238 244 250 254 256 254 253 257 264 269 270 270 272 276 278 280 282 282 282 284 284 282 283 283 283 286 287 287 288 288 289 288 277 266 262 265 270 271 267 263 263 264 265 264 263 263 262 263 264 263 260 255 250 244 238 236 235 233 233 232 231 230 231 232 234 235 236 237 238 238 237 237
209 214 217 221 222 222 223 227 234 238 242 243 240 241 245 249 249 248 247 250 258 266 269 269 271 273 275 277 279 280 280 279 279 280 280 282 283 284 287 288 288 289 291 294 291 278 266 259 257 260 264 264 263 261 262 264 265 264 261 259 260 263 261 258 257 255 251 246 240 238 236 233 234 234 232 232 233 235 236 237 239 240 241 242 242
206 212 217 222 223 221 221 225 230 235 240 242 241 242 244 247 248 248 251 256 262 266 268 269 272 273 274 275 276 276 277 277 276 276 279 282 284 286 290 291 291 292 295 299 292 278 264 259 256 255 255 258 263 263 263 265 268 267 262 259 258 258 254 252 256 257 255 252 247 243 240 235 234 236 236 236 236 237 238 239 240 241 242 243 244
203 209 215 220 221 222 224 227 232 236 237 239 240 241 244 249 254 257 260 263 265 266 268 270 271 271 272 273 274 276 276 275 273 274 277 279 282 287 292 295 298 301 303 304 298 284 269 262 258 253 252 256 261 262 263 264 267 269 266 261 258 258 256 252 254 255 253 253 251 249 248 242 238 237 238 240 240 241 241 242 242 243 243 244 244
202 207 213 219 223 225 228 232 238 241 241 240 240 242 246 250 256 260 260 262 265 267 266 268 269 268 268 269 270 272 273 272 271 272 275 277 279 283 288 296 304 311 312 311 307 295 278 268 264 260 259 262 263 260 260 260 261 264 264 262 258 255 258 259 257 255 252 251 252 253 252 248 243 242 242 242 244 245 244 244 244 244 245 245 246
189 200 208 216 222 226 229 232 236 240 241 240 241 243 245 248 251 254 256 259 262 264 263 262 263 264 266 269 271 272 274 275 274 274 275 277 279 281 286 294 303 311 314 313 308 298 284 275 272 271 270 268 265 260 259 258 258 259 259 261 260 254 254 259 260 258 254 251 253 254 253 251 248 247 248 246 246 247 246 246 246 246 247 247 248
157 171 186 195 207 219 227 230 230 232 235 237 240 242 244 245 246 249 252 254 255 257 259 260 260 263 268 273 278 280 279 278 279 280 280 279 280 282 286 292 299 305 308 307 302 296 290 282 279 277 274 270 266 262 258 254 254 256 257 259 261 260 257 258 260 262 262 257 254 253 250 251 252 250 250 248 246 247 247 247 248 248 249 249 250
146 153 168 180 198 215 225 228 228 229 233 235 238 240 241 241 242 244 246 248 250 251 253 257 258 260 262 268 276 280 278 277 278 278 278 278 280 283 287 291 295 298 299 298 295 293 290 287 288 287 280 272 266 261 258 255 254 255 256 256 258 259 258 258 258 261 265 263 260 257 250 248 253 253 250 248 245 244 244 246 248 249 251 252 252
166 167 177 194 218 229 232 232 230 230 233 234 236 238 239 239 241 242 242 242 247 250 252 257 259 261 264 270 278 280 277 277 276 275 276 278 282 285 289 291 293 293 291 290 287 287 286 287 289 289 285 280 273 265 260 257 255 253 253 254 255 256 256 257 257 257 260 262 264 263 255 248 248 250 248 246 245 244 243 245 248 251 253 255 256
193 204 210 224 239 244 242 238 233 232 235 234 234 237 237 238 240 242 244 245 249 255 259 263 266 270 275 280 283 283 283 284 284 283 283 283 284 286 288 290 291 289 287 284 281 281 283 284 283 281 280 280 278 273 266 260 257 255 254 254 255 257 257 258 257 257 258 259 260 262 262 257 251 248 246 245 246 245 245 246 247 251 254 257 258
207 225 237 246 251 250 246 241 236 233 233 234 235 238 240 242 245 249 254 258 261 265 267 269 272 275 279 282 284 285 285 285 286 286 286 284 284 285 286 288 288 287 285 283 280 278 277 278 277 275 275 274 274 274 271 267 264 261 260 259 258 258 259 261 261 261 260 258 255 255 259 262 258 254 250 248 248 245 246 249 249 252 254 257 260
220 236 248 254 250 243 237 233 235 234 235 238 241 244 247 250 254 258 262 266 269 270 270 271 274 277 280 283 285 285 284 284 284 285 286 286 285 283 283 284 284 284 285 283 280 277 274 273 272 271 271 271 271 272 272 271 269 267 266 265 263 262 260 261 262 263 264 264 260 254 255 258 259 259 254 249 246 243 246 252 253 256 258 259 261
Height
3188 3190 3190 3191 3191 3192 3193 3194 3195 3196 3197 3198 3198 3199 3199 3199 3199 3200 3201 3202 3202 3203 3203 3204 3204 3204 3204 3204 3204 3204 3204 3204 3204 3204 3204 3204 3203 3203 3203 3203 3203 3203 3203 3204 3204 3204 3204 3204 3205 3205 3206 3206 3206 3207 3207 3208 3208 3209 3209 3209 3209 3207 3211 3215 3214 3214 3213 3214 3216 3217 3218 3220 3222 3222 3223 3224 3225 3225 3225 3225 3226 3227 3228 3228 3228
3190 3190 3191 3192 3193 3193 3194 3195 3196 3197 3198 3198 3199 3199 3199 3200 3200 3201 3202 3203 3203 3203 3204 3204 3204 3205 3205 3205 3205 3205 3205 3205 3205 3205 3205 3204 3204 3204 3204 3204 3204 3204 3204 3204 3204 3204 3204 3204 3204 3205 3206 3206 3206 3206 3206 3207 3208 3208 3208 3208 3207 3207 3211 3214 3213 3213 3213 3214 3215 3217 3219 3220 3221 3221 3222 3223 3224 3225 3225 3225 3226 3227 3228 3229 3229
3191 3191 3192 3193 3193 3194 3195 3196 3197 3197 3198 3199 3199 3200 3200 3200 3201 3202 3203 3203 3203 3204 3204 3204 3205 3205 3206 3206 3206 3205 3205 3205 3205 3206 3206 3205 3205 3205 3205 3205 3205 3205 3205 3204 3204 3204 3204 3204 3203 3204 3205 3206 3207 3207 3206 3206 3206 3207 3207 3207 3206 3206 3211 3212 3212 3212 3211 3213 3215 3218 3219 3220 3221 3221 3222 3222 3223 3224 3225 3225 3226 3228 3229 3229 3229
3192 3192 3193 3193 3194 3195 3196 3197 3198 3198 3199 3200 3200 3201 3201 3201 3202 3203 3203 3204 3204 3204 3204 3205 3206 3206 3206 3206 3206 3206 3206 3206 3206 3206 3206 3206 3206 3206 3206 3206 3206 3206 3206 3205 3205 3205 3204 3204 3203 3203 3203 3204 3205 3206 3206 3205 3205 3205 3205 3204 3203 3204 3209 3210 3210 3210 3210 3213 3216 3218 3219 3220 3221 3221 3221 3221 3223 3223 3224 3226 3227 3228 3229 3229 3230
3192 3193 3194 3194 3195 3196 3197 3198 3198 3199 3200 3200 3201 3202 3202 3203 3203 3203 3204 3204 3204 3204 3205 3206 3206 3206 3206 3206 3206 3206 3206 3206 3207 3207 3207 3207 3207 3207 3207 3207 3207 3207 3206 3206 3205 3205 3204 3204 3203 3203 3203 3202 3202 3203 3204 3204 3204 3204 3203 3203 3202 3202 3206 3207 3207 3210 3212 3214 3217 3218 3218 3220 3221 3221 3221 3220 3222 3223 3225 3226 3227 3228 3229 3229 3230
3193 3194 3195 3196 3196 3197 3198 3199 3199 3200 3201 3202 3202 3203 3203 3203 3204 3204 3204 3204 3205 3205 3205 3206 3207 3207 3207 3207 3207 3207 3207 3207 3207 3207 3207 3207 3207 3207 3207 3207 3207 3207 3207 3206 3206 3205 3204 3204 3203 3203 3203 3202 3201 3201 3201 3202 3203 3203 3203 3202 3201 3201 3206 3208 3208 3211 3213 3215 3216 3217 3217 3218 3219 3220 3220 3220 3222 3223 3225 3226 3227 3228 3228 3229 3230
3194 3195 3196 3197 3198 3198 3199 3200 3200 3201 3202 3203 3203 3204 3204 3204 3205 3205 3205 3206 3206 3206 3206 3207 3207 3207 3207 3207 3207 3207 3207 3207 3207 3208 3207 3208 3208 3208 3208 3208 3208 3208 3207 3206 3206 3205 3204 3204 3203 3203 3202 3202 3201 3200 3200 3200 3201 3202 3202 3201 3201 3202 3207 3209 3210 3213 3213 3214 3216 3216 3217 3217 3217 3219 3219 3220 3222 3223 3225 3226 3227 3228 3228 3229 3230
3194 3196 3197 3198 3199 3199 3200 3201 3202 3202 3203 3204 3204 3205 3205 3205 3206 3206 3207 3207 3207 3207 3207 3207 3207 3207 3208 3208 3208 3208 3208 3208 3208 3208 3208 3208 3208 3208 3208 3208 3208 3207 3207 3206 3206 3205 3204 3204 3203 3202 3202 3201 3201 3200 3199 3200 3200 3201 3201 3200 3200 3203 3207 3209 3211 3213 3213 3213 3215 3216 3216 3216 3216 3218 3219 3220 3221 3223 3225 3227 3227 3228 3229 3229 3230
3195 3196 3198 3198 3199 3200 3201 3202 3203 3204 3204 3205 3205 3206 3206 3207 3207 3208 3208 3208 3208 3208 3208 3208 3208 3208 3208 3208 3208 3208 3208 3208 3208 3208 3208 3208 3208 3208 3208 3208 3207 3207 3207 3206 3206 3205 3203 3203 3203 3202 3202 3201 3200 3200 3199 3199 3199 3200 3199 3199 3200 3204 3207 3208 3209 3210 3211 3212 3213 3215 3215 3215 3216 3217 3218 3220 3221 3223 3225 3226 3228 3229 3229 3229 3230
3196 3197 3198 3199 3200 3201 3202 3203 3204 3205 3206 3206 3207 3207 3207 3208 3209 3209 3209 3209 3209 3209 3209 3209 3209 3209 3209 3209 3208 3208 3208 3208 3208 3208 3208 3208 3208 3208 3208 3208 3208 3208 3207 3207 3206 3205 3204 3203 3203 3202 3201 3201 3200 3200 3200 3200 3199 3198 3198 3199 3202 3205 3206 3207 3207 3208 3210 3210 3212 3213 3214 3214 3215 3216 3218 3220 3221 3223 3225 3226 3228 3229 3229 3230 3230
3196 3198 3198 3200 3201 3202 3203 3204 3205 3206 3207 3208 3208 3208 3209 3210 3210 3210 3210 3210 3210 3209 3209 3209 3209 3209 3209 3209 3209 3209 3208 3209 3209 3209 3208 3208 3208 3208 3208 3208 3208 3208 3207 3207 3207 3206 3205 3203 3203 3202 3201 3201 3200 3201 3200 3200 3199 3197 3198 3200 3202 3204 3205 3205 3206 3207 3208 3209 3211 3212 3212 3213 3214 3215 3217 3219 3221 3222 3225 3226 3228 3229 3230 3230 3230
3197 3198 3199 3200 3202 3203 3204 3205 3206 3207 3208 3209 3209 3210 3210 3211 3211 3211 3211 3211 3211 3210 3210 3210 3210 3210 3210 3210 3209 3209 3209 3209 3209 3209 3209 3208 3208 3208 3208 3208 3208 3208 3207 3207 3207 3207 3206 3204 3203 3202 3202 3201 3200 3201 3201 3200 3199 3197 3198 3200 3202 3203 3203 3204 3205 3206 3206 3208 3210 3210 3211 3211 3212 3214 3216 3218 3220 3222 3224 3226 3228 3229 3230 3230 3230
3198 3199 3200 3201 3202 3203 3204 3206 3207 3207 3208 3210 3210 3211 3211 3212 3212 3212 3212 3212 3212 3211 3211 3211 3211 3211 3210 3210 3210 3210 3209 3209 3209 3209 3209 3208 3208 3208 3208 3208 3208 3208 3207 3207 3207 3207 3206 3205 3204 3203 3202 3201 3200 3201 3200 3199 3199 3198 3198 3200 3202 3202 3203 3204 3205 3205 3206 3208 3209 3209 3210 3211 3212 3214 3216 3218 3220 3222 3224 3226 3228 3229 3230 3230 3231
3199 3200 3200 3202 3203 3204 3205 3206 3207 3208 3209 3210 3211 3212 3212 3212 3212 3213 3213 3213 3212 3212 3212 3212 3212 3211 3211 3211 3211 3210 3210 3210 3210 3210 3210 3210 3209 3209 3209 3208 3208 3208 3207 3207 3207 3207 3206 3205 3204 3204 3203 3201 3200 3200 3200 3199 3199 3199 3199 3200 3201 3203 3204 3204 3204 3205 3206 3207 3208 3208 3209 3210 3212 3214 3215 3218 3220 3222 3224 3226 3228 3229 3230 3230 3231
3199 3201 3202 3202 3203 3204 3205 3207 3208 3209 3210 3210 3211 3212 3213 3213 3213 3213 3213 3213 3213 3213 3213 3213 3212 3212 3212 3212 3211 3211 3210 3210 3210 3211 3211 3211 3210 3210 3210 3209 3209 3208 3207 3207 3207 3207 3206 3205 3204 3204 3203 3201 3201 3200 3199 3199 3198 3199 3198 3199 3200 3201 3204 3205 3204 3204 3205 3206 3208 3208 3209 3210 3211 3213 3215 3217 3219 3221 3224 3226 3228 3229 3230 3231 3231
3200 3201 3202 3203 3204 3205 3206 3207 3208 3209 3210 3211 3211 3212 3213 3213 3214 3214 3214 3214 3214 3214 3213 3213 3213 3213 3213 3213 3212 3211 3211 3211 3211 3211 3211 3211 3211 3210 3210 3209 3209 3209 3208 3208 3208 3207 3206 3205 3204 3203 3203 3201 3201 3200 3200 3199 3198 3198 3198 3198 3199 3200 3203 3205 3204 3204 3205 3206 3207 3208 3209 3210 3211 3213 3214 3216 3219 3221 3224 3226 3227 3229 3230 3231 3232
3200 3201 3203 3204 3204 3205 3206 3207 3208 3209 3210 3211 3212 3212 3213 3214 3214 3214 3214 3214 3214 3214 3214 3214 3214 3214 3214 3213 3213 3212 3212 3212 3211 3211 3211 3211 3211 3210 3210 3209 3209 3209 3209 3208 3208 3207 3206 3204 3203 3203 3202 3201 3201 3200 3200 3199 3198 3199 3199 3199 3201 3200 3202 3205 3204 3204 3206 3206 3207 3208 3209 3210 3211 3213 3214 3216 3219 3221 3224 3226 3227 3229 3230 3231 3232
3201 3201 3203 3204 3205 3206 3207 3207 3209 3210 3210 3211 3212 3212 3213 3214 3214 3215 3215 3215 3215 3215 3215 3215 3215 3214 3214 3214 3213 3213 3213 3212 3212 3211 3212 3212 3211 3211 3210 3210 3209 3209 3209 3208 3208 3207 3205 3204 3204 3203 3202 3201 3201 3200 3200 3199 3199 3199 3200 3200 3201 3201 3202 3204 3205 3204 3206 3208 3208 3209 3210 3210 3211 3213 3214 3216 3219 3221 3224 3226 3227 3228 3230 3231 3232
3201 3201 3202 3204 3205 3206 3207 3208 3209 3210 3210 3211 3212 3213 3213 3214 3214 3215 3215 3216 3215 3215 3215 3215 3215 3215 3215 3215 3214 3214 3213 3213 3212 3212 3213 3212 3211 3212 3211 3211 3210 3209 3209 3208 3208 3207 3206 3205 3204 3203 3202 3201 3201 3200 3200 3200 3200 3200 3200 3200 3201 3202 3202 3203 3204 3204 3205 3208 3209 3210 3210 3211 3212 3213 3214 3217 3219 3222 3224 3226 3227 3228 3230 3231 3232
3201 3201 3202 3204 3204 3206 3207 3208 3209 3210 3211 3211 3212 3213 3213 3214 3215 3215 3216 3216 3216 3216 3216 3216 3216 3216 3215 3215 3215 3214 3214 3213 3212 3212 3214 3214 3212 3212 3212 3211 3211 3210 3209 3209 3208 3207 3206 3205 3205 3204 3203 3202 3201 3200 3200 3200 3201 3200 3201 3201 3201 3202 3202 3202 3203 3205 3205 3207 3209 3211 3211 3211 3212 3214 3215 3218 3220 3222 3224 3225 3227 3228 3230 3231 3232
3201 3201 3202 3203 3204 3205 3207 3208 3209 3210 3211 3211 3212 3213 3213 3214 3215 3215 3216 3216 3216 3216 3216 3216 3216 3216 3216 3215 3215 3215 3214 3214 3213 3212 3212 3213 3213 3213 3213 3212 3211 3211 3210 3209 3208 3207 3206 3206 3205 3204 3203 3202 3201 3201 3201 3201 3201 3201 3201 3201 3202 3203 3204 3203 3204 3204 3205 3207 3208 3210 3212 3213 3214 3215 3217 3218 3220 3222 3223 3225 3227 3228 3230 3231 3232
3200 3201 3202 3203 3204 3205 3206 3208 3209 3209 3210 3211 3212 3212 3213 3214 3215 3215 3216 3216 3217 3217 3217 3217 3217 3217 3217 3216 3216 3215 3215 3214 3214 3213 3211 3211 3212 3212 3212 3212 3211 3211 3210 3209 3209 3208 3207 3206 3206 3205 3204 3203 3202 3201 3202 3202 3201 3201 3201 3202 3202 3203 3205 3205 3205 3205 3205 3207 3207 3209 3211 3213 3215 3216 3217 3218 3220 3221 3223 3225 3226 3228 3229 3231 3231
3200 3201 3202 3203 3204 3205 3206 3207 3208 3209 3210 3211 3211 3212 3213 3214 3214 3215 3216 3216 3217 3217 3217 3217 3218 3217 3217 3217 3216 3216 3215 3215 3214 3214 3213 3211 3211 3211 3211 3211 3212 3211 3210 3209 3209 3208 3208 3207 3207 3206 3205 3204 3203 3201 3201 3202 3202 3202 3202 3202 3202 3204 3205 3206 3206 3206 3206 3207 3207 3208 3210 3212 3214 3215 3216 3218 3219 3221 3223 3224 3226 3228 3229 3230 3231
3200 3201 3202 3203 3204 3205 3206 3207 3208 3209 3209 3210 3211 3212 3213 3213 3214 3215 3215 3216 3216 3217 3217 3218 3218 3218 3218 3217 3217 3216 3216 3215 3215 3215 3214 3213 3212 3211 3210 3210 3211 3211 3210 3210 3209 3209 3208 3208 3208 3207 3206 3205 3203 3202 3201 3201 3202 3203 3203 3203 3203 3205 3205 3206 3207 3208 3208 3208 3209 3209 3210 3212 3213 3214 3216 3218 3219 3221 3223 3224 3226 3227 3229 3230 3231
3201 3201 3202 3203 3204 3205 3206 3206 3207 3208 3209 3209 3210 3211 3212 3213 3214 3214 3215 3216 3216 3216 3217 3217 3218 3218 3218 3217 3217 3216 3216 3216 3215 3215 3215 3214 3213 3212 3210 3208 3209 3209 3210 3210 3210 3209 3209 3209 3209 3208 3207 3205 3204 3203 3202 3202 3201 3201 3202 3202 3203 3205 3206 3207 3208 3209 3209 3210 3210 3211 3212 3212 3214 3215 3216 3218 3220 3221 3222 3224 3225 3227 3228 3229 3231
3200 3201 3202 3203 3204 3205 3206 3206 3207 3208 3209 3209 3210 3211 3212 3213 3213 3214 3215 3215 3216 3216 3216 3217 3217 3217 3217 3217 3217 3216 3216 3216 3216 3215 3215 3214 3214 3213 3211 3210 3209 3208 3209 3210 3211 3211 3211 3210 3209 3209 3208 3206 3205 3204 3203 3203 3202 3201 3202 3202 3203 3204 3205 3207 3208 3209 3210 3210 3210 3211 3212 3213 3214 3215 3216 3218 3220 3221 3222 3223 3225 3226 3227 3229 3230
3198 3200 3201 3202 3203 3204 3205 3206 3207 3207 3208 3209 3209 3210 3211 3212 3213 3213 3214 3214 3215 3215 3216 3216 3216 3217 3217 3217 3216 3216 3216 3216 3215 3215 3215 3215 3214 3214 3213 3212 3211 3209 3209 3210 3210 3210 3210 3210 3210 3209 3208 3207 3206 3205 3204 3204 3203 3203 3203 3203 3203 3204 3205 3206 3207 3208 3210 3210 3211 3211 3211 3212 3213 3214 3216 3217 3218 3219 3221 3223 3224 3226 3227 3228 3230
3197 3198 3199 3201 3202 3203 3204 3205 3206 3206 3207 3208 3209 3210 3211 3211 3212 3212 3213 3213 3214 3215 3215 3215 3215 3216 3216 3216 3216 3216 3216 3216 3215 3215 3215 3215 3214 3214 3214 3213 3212 3211 3210 3210 3209 3208 3208 3208 3209 3209 3208 3207 3206 3205 3205 3205 3204 3204 3203 3204 3204 3204 3205 3205 3207 3208 3209 3210 3211 3211 3211 3211 3212 3214 3215 3216 3217 3218 3220 3222 3223 3225 3226 3228 3229
3195 3197 3198 3200 3201 3202 3203 3204 3205 3206 3207 3208 3209 3209 3210 3210 3211 3211 3212 3212 3213 3214 3214 3215 3215 3215 3215 3215 3215 3215 3215 3215 3215 3214 3214 3214 3214 3214 3214 3213 3212 3211 3210 3210 3209 3209 3208 3208 3208 3208 3207 3207 3206 3206 3205 3205 3205 3204 3204 3204 3204 3205 3205 3205 3206 3207 3208 3209 3210 3211 3212 3212 3213 3213 3214 3216 3217 3218 3220 3221 3223 3224 3226 3227 3228
3195 3196 3197 3199 3200 3201 3202 3203 3204 3205 3206 3207 3208 3208 3209 3210 3210 3210 3211 3211 3212 3213 3213 3214 3214 3214 3214 3214 3214 3214 3214 3214 3214 3213 3213 3213 3213 3213 3213 3213 3212 3211 3210 3209 3209 3208 3208 3208 3207 3207 3207 3206 3206 3206 3205 3205 3205 3205 3204 3204 3204 3205 3205 3205 3206 3207 3208 3209 3210 3211 3212 3212 3213 3214 3214 3215 3216 3218 3219 3220 3222 3223 3225 3226 3227
3194 3195 3197 3198 3199 3200 3201 3202 3203 3203 3204 3206 3206 3207 3208 3209 3209 3210 3210 3211 3211 3211 3212 3213 3213 3213 3213 3213 3213 3213 3213 3213 3212 3212 3212 3212 3212 3212 3211 3211 3211 3210 3209 3209 3208 3207 3207 3207 3207 3206 3206 3206 3206 3206 3205 3205 3205 3205 3205 3204 3204 3204 3205 3205 3206 3206 3207 3208 3209 3210 3211 3212 3213 3213 3214 3215 3216 3217 3218 3220 3221 3222 3224 3225 3226
3193 3194 3195 3196 3198 3199 3200 3201 3202 3203 3204 3204 3205 3206 3207 3207 3208 3209 3210 3210 3210 3210 3211 3211 3211 3211 3212 3212 3213 3212 3212 3212 3211 3211 3210 3210 3210 3210 3210 3210 3210 3209 3208 3208 3207 3207 3206 3206 3206 3206 3206 3206 3205 3205 3205 3205 3205 3205 3205 3204 3204 3204 3204 3205 3205 3206 3207 3207 3208 3209 3210 3211 3212 3213 3213 3214 3215 3216 3218 3219 3220 3221 3223 3224 3225
3192 3193 3194 3196 3197 3198 3199 3200 3201 3202 3202 3203 3204 3205 3205 3206 3207 3208 3208 3209 3209 3209 3210 3210 3210 3210 3210 3211 3211 3211 3211 3210 3210 3209 3209 3209 3209 3209 3208 3208 3208 3207 3207 3207 3206 3206 3205 3205 3205 3205 3205 3205 3205 3205 3205 3204 3204 3204 3204 3204 3204 3204 3204 3204 3205 3205 3206 3207 3207 3208 3209 3210 3211 3212 3213 3213 3214 3215 3217 3218 3219 3220 3221 3222 3223
3191 3192 3194 3195 3196 3198 3199 3200 3200 3201 3201 3202 3203 3204 3204 3205 3206 3206 3207 3207 3208 3208 3208 3208 3208 3209 3209 3209 3209 3209 3209 3209 3209 3209 3208 3208 3207 3207 3207 3206 3205 3205 3205 3205 3205 3204 3204 3204 3204 3204 3204 3204 3204 3204 3204 3204 3204 3204 3204 3204 3203 3204 3204 3204 3204 3204 3205 3206 3206 3207 3208 3209 3210 3211 3212 3213 3214 3215 3216 3217 3218 3219 3220 3221 3222
3190 3192 3193 3194 3196 3197 3198 3198 3199 3200 3200 3201 3202 3203 3203 3204 3204 3205 3205 3206 3206 3206 3207 3207 3207 3207 3207 3207 3207 3207 3208 3208 3208 3208 3207 3207 3206 3206 3205 3204 3202 3203 3203 3203 3203 3203 3203 3203 3203 3203 3203 3203 3203 3203 3203 3203 3203 3203 3203 3203 3203 3203 3203 3203 3203 3204 3204 3204 3205 3206 3207 3208 3208 3209 3211 3212 3213 3213 3214 3215 3216 3218 3219 3220 3221
3189 3191 3192 3194 3195 3196 3197 3197 3198 3198 3199 3200 3200 3201 3202 3202 3203 3203 3204 3204 3204 3205 3205 3205 3205 3205 3205 3206 3206 3207 3207 3206 3206 3206 3206 3205 3204 3204 3203 3202 3201 3201 3201 3201 3201 3201 3201 3201 3201 3201 3201 3201 3202 3201 3202 3202 3202 3202 3202 3202 3202 3202 3202 3202 3202 3203 3203 3203 3204 3205 3206 3207 3207 3208 3209 3210 3211 3212 3213 3214 3215 3216 3217 3218 3219
3189 3190 3192 3193 3194 3195 3195 3196 3196 3197 3197 3198 3198 3199 3200 3201 3202 3202 3202 3203 3203 3203 3204 3204 3204 3204 3204 3204 3205 3205 3205 3205 3205 3204 3204 3203 3202 3202 3201 3200 3200 3199 3199 3198 3199 3199 3199 3199 3199 3200 3200 3200 3200 3200 3200 3201 3201 3201 3201 3201 3202 3202 3202 3201 3201 3202 3202 3202 3203 3203 3204 3205 3206 3207 3208 3209 3210 3211 3212 3213 3214 3214 3215 3216 3217
3188 3189 3190 3192 3193 3193 3194 3194 3194 3194 3195 3195 3196 3198 3199 3200 3200 3201 3201 3202 3202 3202 3202 3202 3202 3202 3202 3202 3203 3203 3203 3203 3203 3202 3202 3201 3200 3200 3199 3198 3197 3197 3197 3196 3196 3196 3196 3196 3197 3197 3198 3199 3199 3199 3199 3199 3200 3200 3200 3200 3201 3201 3201 3200 3200 3201 3201 3201 3201 3202 3203 3204 3204 3205 3206 3207 3208 3209 3210 3211 3212 3212 3213 3214 3215
3187 3188 3189 3190 3191 3192 3192 3192 3191 3191 3193 3193 3194 3196 3197 3198 3199 3200 3200 3200 3200 3200 3200 3201 3201 3201 3200 3200 3201 3201 3201 3201 3201 3200 3200 3200 3199 3198 3197 3196 3195 3196 3196 3195 3194 3194 3194 3194 3194 3195 3196 3197 3197 3197 3197 3197 3198 3198 3199 3199 3199 3199 3200 3200 3200 3200 3200 3200 3200 3201 3201 3202 3203 3203 3204 3205 3206 3207 3208 3209 3210 3210 3211 3212 3213
3186 3187 3189 3190 3190 3191 3192 3191 3189 3190 3191 3191 3192 3195 3196 3197 3198 3199 3199 3199 3199 3199 3199 3199 3199 3199 3199 3199 3199 3200 3200 3199 3199 3198 3198 3198 3197 3196 3195 3195 3194 3193 3194 3193 3192 3191 3191 3191 3192 3193 3194 3194 3195 3196 3196 3196 3196 3197 3197 3198 3198 3198 3198 3198 3198 3199 3199 3199 3199 3199 3200 3201 3201 3202 3203 3203 3204 3205 3206 3207 3207 3208 3209 3210 3211
3185 3187 3188 3189 3190 3191 3191 3191 3190 3191 3191 3191 3192 3194 3195 3196 3197 3197 3198 3197 3197 3197 3197 3198 3198 3198 3198 3198 3198 3198 3198 3198 3197 3197 3197 3197 3196 3195 3194 3193 3192 3192 3191 3190 3190 3189 3189 3189 3189 3190 3191 3192 3193 3194 3194 3195 3195 3195 3196 3196 3196 3196 3196 3197 3197 3197 3197 3197 3198 3198 3198 3199 3200 3200 3201 3201 3202 3203 3203 3204 3205 3206 3207 3208 3208
3184 3186 3187 3188 3189 3190 3190 3191 3191 3191 3192 3192 3193 3194 3194 3194 3195 3196 3196 3196 3196 3196 3196 3196 3197 3196 3196 3197 3197 3197 3197 3197 3196 3196 3196 3196 3195 3194 3193 3192 3191 3190 3189 3189 3189 3188 3188 3188 3188 3188 3190 3190 3191 3192 3193 3193 3193 3193 3194 3194 3194 3194 3194 3194 3195 3195 3195 3196 3196 3197 3197 3197 3198 3198 3199 3199 3200 3201 3201 3202 3203 3203 3204 3205 3206
3183 3185 3186 3187 3188 3189 3190 3190 3191 3191 3192 3192 3192 3193 3193 3193 3194 3195 3195 3195 3195 3195 3195 3195 3195 3195 3195 3195 3195 3196 3195 3195 3195 3195 3195 3194 3194 3193 3192 3192 3191 3189 3188 3188 3187 3186 3186 3187 3187 3188 3189 3189 3189 3190 3191 3192 3192 3192 3192 3193 3193 3192 3190 3190 3192 3193 3193 3194 3194 3195 3195 3196 3196 3196 3197 3197 3198 3198 3199 3200 3200 3201 3202 3202 3203
3183 3184 3185 3186 3187 3188 3189 3189 3190 3190 3191 3191 3191 3192 3192 3193 3193 3194 3194 3193 3193 3193 3194 3194 3194 3194 3194 3194 3194 3194 3194 3194 3194 3194 3193 3193 3192 3192 3192 3191 3190 3189 3188 3186 3186 3185 3185 3185 3185 3186 3187 3187 3188 3188 3189 3190 3190 3191 3191 3191 3191 3190 3188 3188 3190 3191 3191 3191 3192 3193 3193 3194 3194 3194 3195 3195 3196 3196 3197 3197 3198 3199 3199 3200 3200
3183 3184 3185 3186 3187 3187 3188 3189 3189 3189 3190 3190 3191 3191 3192 3192 3192 3192 3192 3192 3192 3192 3192 3193 3193 3193 3193 3193 3193 3193 3193 3193 3193 3193 3192 3191 3191 3191 3190 3190 3189 3188 3187 3186 3185 3185 3184 3184 3184 3184 3184 3185 3186 3187 3188 3189 3189 3189 3189 3189 3189 3189 3188 3188 3189 3188 3189 3189 3189 3190 3191 3191 3191 3192 3192 3193 3193 3194 3194 3195 3196 3196 3197 3197 3198
3183 3184 3185 3186 3186 3187 3187 3188 3188 3189 3189 3189 3190 3190 3191 3191 3191 3192 3191 3191 3191 3191 3192 3192 3192 3192 3192 3192 3191 3192 3192 3192 3192 3191 3191 3190 3190 3189 3189 3189 3188 3187 3186 3186 3185 3184 3184 3183 3183 3183 3183 3184 3185 3186 3186 3187 3187 3187 3187 3187 3187 3187 3187 3187 3187 3186 3187 3188 3187 3187 3188 3189 3189 3189 3190 3190 3191 3191 3192 3192 3193 3194 3194 3195 3195
3184 3185 3185 3185 3186 3187 3187 3187 3187 3188 3188 3188 3189 3190 3190 3190 3191 3191 3191 3191 3191 3190 3191 3190 3191 3191 3191 3190 3190 3191 3190 3190 3190 3190 3189 3189 3188 3188 3187 3187 3187 3186 3186 3185 3184 3184 3183 3183 3183 3183 3183 3183 3184 3184 3185 3185 3186 3186 3186 3185 3185 3185 3185 3185 3185 3184 3184 3185 3186 3186 3186 3186 3186 3187 3187 3188 3188 3189 3189 3190 3190 3191 3192 3193 3193
3184 3184 3185 3185 3185 3186 3186 3186 3187 3187 3187 3188 3188 3189 3189 3190 3190 3190 3190 3190 3190 3189 3189 3189 3189 3189 3189 3189 3189 3189 3189 3188 3188 3188 3187 3187 3186 3186 3186 3185 3185 3185 3185 3185 3184 3184 3183 3183 3182 3182 3182 3182 3183 3183 3183 3184 3185 3185 3184 3183 3183 3183 3182 3182 3182 3182 3182 3182 3183 3184 3184 3184 3184 3184 3185 3185 3186 3186 3187 3187 3188 3189 3189 3190 3191
3183 3184 3184 3184 3184 3185 3185 3185 3186 3186 3186 3187 3187 3187 3188 3188 3189 3189 3189 3189 3188 3188 3188 3188 3187 3188 3187 3187 3187 3187 3186 3186 3186 3186 3185 3185 3184 3184 3184 3183 3183 3183 3183 3183 3183 3183 3182 3182 3182 3181 3181 3181 3181 3182 3182 3183 3183 3182 3182 3181 3181 3180 3180 3179 3179 3179 3179 3179 3180 3181 3181 3181 3182 3182 3182 3182 3183 3183 3184 3185 3185 3186 3187 3187 3188
3183 3183 3183 3183 3183 3184 3184 3184 3184 3185 3185 3185 3186 3186 3187 3187 3187 3187 3187 3187 3187 3187 3187 3187 3187 3186 3186 3186 3185 3185 3184 3184 3184 3184 3184 3183 3183 3182 3182 3182 3182 3182 3182 3182 3182 3181 3181 3181 3180 3180 3181 3181 3180 3180 3181 3181 3180 3180 3180 3179 3179 3179 3179 3178 3177 3177 3177 3177 3177 3178 3178 3178 3179 3180 3179 3179 3180 3181 3181 3182 3183 3183 3184 3185 3185
3182 3183 3182 3182 3182 3182 3183 3183 3183 3183 3184 3184 3184 3185 3185 3185 3186 3186 3186 3185 3185 3186 3185 3185 3185 3185 3184 3184 3183 3183 3183 3182 3182 3182 3182 3182 3181 3181 3181 3181 3180 3180 3180 3180 3180 3180 3180 3180 3179 3179 3179 3179 3179 3179 3179 3178 3178 3178 3178 3177 3176 3177 3177 3177 3177 3177 3177 3176 3176 3176 3177 3176 3176 3177 3176 3177 3178 3178 3178 3179 3180 3181 3181 3182 3182